BGF001 VOHS-VOHS

Flight info

Callsign BGF001
Flight time 0h 2m
Altitude 6000
Route HS125
Aircraft H160/L-SBDGRY/S

Departure

Time 2026-05-07 13:37
Airport Rajiv Gandhi International Airport (VOHS)

Arrival

Time 2026-05-07 13:39
Airport Rajiv Gandhi International Airport (VOHS)
Time Latitude Longitude Altitude Speed Heading
2026-05-07 13:29 17.23326 78.43425 1977 ft 0 kts 269°
2026-05-07 13:33 17.23327 78.43417 1981 ft 0 kts 269°
2026-05-07 13:33 17.23340 78.43339 2003 ft 19 kts 276°
2026-05-07 13:34 17.23351 78.43244 2009 ft 10 kts 285°
2026-05-07 13:34 17.23307 78.43117 2227 ft 13 kts 179°
2026-05-07 13:34 17.23270 78.43345 2162 ft 83 kts 94°
2026-05-07 13:35 17.23223 78.43902 2246 ft 70 kts 93°
2026-05-07 13:35 17.23193 78.44427 2278 ft 81 kts 87°
2026-05-07 13:35 17.23164 78.45021 2248 ft 88 kts 95°
2026-05-07 13:35 17.22918 78.45005 2167 ft 93 kts 273°
2026-05-07 13:36 17.22975 78.44339 2363 ft 82 kts 285°
2026-05-07 13:36 17.22917 78.43646 2174 ft 119 kts 252°
2026-05-07 13:36 17.22897 78.42790 2074 ft 116 kts 263°
2026-05-07 13:36 17.22882 78.41966 2079 ft 108 kts 271°
2026-05-07 13:37 17.22881 78.41205 2261 ft 88 kts 266°
2026-05-07 13:37 17.23090 78.40667 2645 ft 86 kts 308°
2026-05-07 13:37 17.22919 78.40118 2836 ft 91 kts 199°
2026-05-07 13:37 17.22384 78.40519 2859 ft 112 kts 121°
2026-05-07 13:38 17.22258 78.41360 2559 ft 128 kts 96°
2026-05-07 13:38 17.22076 78.42204 2450 ft 113 kts 104°
2026-05-07 13:38 17.22017 78.43021 2369 ft 102 kts 95°
2026-05-07 13:38 17.22159 78.43766 2186 ft 111 kts 70°
2026-05-07 13:39 17.22414 78.44386 2379 ft 88 kts 48°
2026-05-07 13:39 17.23037 78.44279 2218 ft 84 kts 335°
2026-05-07 13:39 17.23267 78.43949 2031 ft 41 kts 289°
2026-05-07 13:39 17.23343 78.43644 2043 ft 47 kts 279°
2026-05-07 13:40 17.23334 78.43479 2004 ft 2 kts 339°
2026-05-07 13:40 17.23345 78.43415 2002 ft 7 kts 179°
2026-05-07 13:40 17.23318 78.43401 2103 ft 1 kts 129°
2026-05-07 13:40 17.23310 78.43416 2001 ft 12 kts 100°
2026-05-07 13:41 17.23311 78.43446 1977 ft 5 kts 287°
2026-05-07 13:41 17.23326 78.43428 1976 ft 0 kts 288°
2026-05-07 13:41 17.23326 78.43426 1976 ft 0 kts 269°